DW1024 Weather Reports


time (UTC)temp
F
wind
direction
speed
knots
gust
knots
rain 1hr
in
rain 24hr
in
rain mn
in
humidity
%
barometer
mb
20260903083203 73 132 1.7 7.0 0.00 0.00 0.00 57 1024.1
20260903081707 73 246 1.7 7.0 0.00 0.00 0.00 60 1023.9
20260903080205 72 304 1.7 6.1 0.00 0.00 0.00 62 1023.9
20260903073203 69 348 1.7 7.0 0.00 0.00 0.00 69 1024.3
20260903071703 68 290 1.7 5.2 0.00 0.00 0.00 70 1024.4
20260903064702 65 219 0.0 2.6 0.00 0.00 0.00 75 1024.2
20260903063202 63 277 0.9 3.5 0.00 0.00 0.00 78 1024.2
20260903061702 62 200 0.9 2.6 0.00 0.00 0.00 81 1024.0
20260903060200 60 269 0.9 2.6 0.00 0.00 0.00 83 1023.9
20260903053203 59 253 0.0 0.0 0.00 0.00 0.00 88 1023.7
20260903051700 57 253 0.0 0.0 0.00 0.00 0.00 91 1023.7
20260903050203 56 253 0.0 0.0 0.00 0.00 0.00 91 1023.6
20260903044704 55 253 0.0 0.0 0.00 0.00 0.00 91 1023.6
20260903043201 55 253 0.0 0.0 0.00 0.00 0.00 90 1023.6
20260903041704 56 253 0.0 0.0 0.00 0.00 0.00 89 1023.6
20260903040201 57 253 0.0 0.0 0.00 0.00 0.00 87 1023.6
20260903034706 58 253 0.0 0.0 0.00 0.00 0.00 86 1023.6
20260903033202 59 253 0.0 0.0 0.00 0.00 0.00 84 1023.7
20260903030204 60 253 0.0 0.0 0.00 0.00 0.00 83 1023.6
20260903024702 60 253 0.0 0.0 0.00 0.00 0.00 82 1023.6
20260903023201 60 253 0.0 0.0 0.00 0.00 0.00 82 1023.6
20260903021700 59 253 0.0 0.0 0.00 0.00 0.00 82 1023.7
20260903020201 59 253 0.0 0.0 0.00 0.00 0.00 81 1023.6
20260903014703 60 253 0.0 0.9 0.00 0.00 0.00 80 1023.6
20260903013202 60 253 0.0 1.7 0.00 0.00 0.00 80 1023.6
20260903011701 59 253 0.0 0.0 0.00 0.00 0.00 82 1023.6
20260903010205 60 253 0.0 0.0 0.00 0.00 0.00 81 1023.4
20260903004707 59 253 0.0 0.0 0.00 0.00 0.00 83 1023.5
20260903001702 59 253 0.0 0.0 0.00 0.00 0.00 82 1023.4
20260903000204 60 253 0.0 0.0 0.00 0.00 0.00 81 1023.4
20260902234701 61 253 0.0 0.0 0.00 0.00 0.00 80 1023.4
20260902233203 61 253 0.0 0.0 0.00 0.00 0.00 78 1023.4
20260902231702 62 253 0.0 0.9 0.00 0.00 0.00 77 1023.4
20260902230201 62 253 0.0 0.9 0.00 0.00 0.00 77 1023.4
20260902224701 62 253 0.0 1.7 0.00 0.00 0.00 75 1023.5
20260902221703 63 253 0.0 0.9 0.00 0.00 0.00 74 1023.2
20260902220202 63 253 0.0 0.0 0.00 0.00 0.00 74 1023.1
20260902214706 61 253 0.0 0.0 0.00 0.00 0.00 77 1023.0
20260902213204 61 253 0.0 0.0 0.00 0.00 0.00 79 1022.8
20260902211702 61 253 0.0 0.0 0.00 0.00 0.00 79 1022.7
20260902210201 61 253 0.0 0.0 0.00 0.00 0.00 77 1022.6
20260902204700 63 253 0.0 0.0 0.00 0.00 0.00 74 1022.6
20260902203203 63 253 0.0 0.9 0.00 0.00 0.00 72 1022.6
20260902200159 65 253 0.0 0.0 0.00 0.00 0.00 69 1022.6
20260902194658 65 253 0.0 0.0 0.00 0.00 0.00 69 1022.4
20260902193159 66 253 0.0 0.0 0.00 0.00 0.00 66 1022.3
20260902191657 68 253 0.0 0.0 0.00 0.00 0.00 62 1022.2
20260902190155 68 253 0.0 0.9 0.00 0.00 0.00 61 1022.1
20260902181655 71 254 0.0 2.6 0.00 0.00 0.00 58 1022.0
20260902180200 70 284 0.0 0.0 0.00 0.00 0.00 60 1021.6
20260902174655 71 284 0.0 0.9 0.00 0.00 0.00 59 1021.4
20260902173200 73 284 0.0 2.6 0.00 0.00 0.00 54 1021.4
20260902171657 74 289 0.0 1.7 0.00 0.00 0.00 53 1021.3
20260902164653 75 43 0.9 6.1 0.00 0.00 0.00 51 1021.3
20260902163154 75 207 0.9 6.1 0.00 0.00 0.00 51 1021.2
20260902161653 76 207 2.6 7.0 0.00 0.00 0.00 49 1021.2
20260902160153 77 282 0.9 3.5 0.00 0.00 0.00 48 1021.1
20260902154656 77 223 1.7 7.0 0.00 0.00 0.00 48 1021.0
20260902150152 78 326 2.6 7.8 0.00 0.00 0.00 44 1021.4
20260902143154 79 257 2.6 8.7 0.00 0.00 0.00 43 1021.4
20260902141652 80 167 0.9 6.1 0.00 0.00 0.00 43 1021.6
20260902140155 80 134 2.6 10.4 0.00 0.00 0.00 42 1021.6
20260902134759 80 165 3.5 10.4 0.00 0.00 0.00 44 1021.6
20260902130155 79 242 1.7 7.0 0.00 0.00 0.00 44 1022.0
20260902124656 79 153 1.7 7.8 0.00 0.00 0.00 49 1022.0
20260902123154 79 310 1.7 6.1 0.00 0.00 0.00 46 1022.1
20260902121656 79 282 1.7 4.3 0.00 0.00 0.00 47 1022.0
20260902120155 77 16 1.7 6.1 0.00 0.00 0.00 49 1022.1
20260902114656 76 240 1.7 5.2 0.00 0.00 0.00 52 1022.3
20260902113149 75 259 0.9 3.5 0.00 0.00 0.00 54 1022.6
20260902111648 76 299 0.9 3.5 0.00 0.00 0.00 55 1022.5
20260902110148 74 33 0.9 3.5 0.00 0.00 0.00 55 1022.6
20260902104649 75 221 0.9 3.5 0.00 0.00 0.00 56 1022.7
20260902101653 73 276 0.9 2.6 0.00 0.00 0.00 58 1022.8
20260902094649 74 331 0.0 1.7 0.00 0.00 0.00 57 1023.1
20260902093149 73 241 0.9 2.6 0.00 0.00 0.00 57 1023.2
20260902091649 74 250 0.9 2.6 0.00 0.00 0.00 59 1023.2
20260902090149 74 215 0.9 2.6 0.00 0.00 0.00 57 1023.1
20260902084650 71 49 0.9 2.6 0.00 0.00 0.00 62 1023.3